Showing default

SHIYAN 27B, 63600

Orbit data source: Space-Track

SHIYAN 27B, 63600 is a payload satellite owned by CAST (CN) in SSO that was launched on Fri, 18 Apr 2025 UTC via a CHANG ZHENG 6A launch vehicle from the Taiyaun Space Center, China (TSC). Payload-class satellites include a variety of spacecraft equipped with specific instruments for various scientific and technological missions. These include communications satellites like Starlink; space stations such as the ISS; scientific satellites like the Hubble; Earth observation satellites from companies like Planet Labs, Umbra, and HawkEye 360; GPS; miniature CubeSats for education and research; and military/defense satellites.

Loading next visibility...
Identifier
63600, 2025-078B
Orbit
SSO
Country
Flag of CNCN / PRC
Related business
Manufacturer
CAST
Mission
Operational Defense Radar Imaging
Bus & Motor
SW27, Unknown motor
Mass
300 kg wet, ~300 kg dry
Launch date (UTC)
2025-04-18 (1 year ago)
Launch vehicle
CHANG ZHENG 6A
Launch site
Taiyaun Space Center, China (TSC)
Object type
Payload
Rocket body
Debris
Shape & HBR
Box + 1 Pan, 2.2 m
Radar Cross Section
13.200 m², Large (>1 m²)

Expand to show TLE details & history
Last TLE update: 5 hours ago

TLE from 5 hours ago
0 SHIYAN 27B
1 63600U 25078B   26127.73860821 -.00000019  00000-0  35770-4 0  9997
2 63600  99.6923 135.5428 0001206  90.4777 269.6500 13.57221209 52047
Epoch: 2026-05-07T17:43Z
TLE epoch observation values (Epoch: 2026-05-07T17:43:35.749Z)
Latitude
0.00003°
Longitude
4.06341°
Altitude
1,048.609 km
Speed
7.328 km/s
True Right ascension
09h 02m 10s
True Declination
0° 00' 00"
Sunlit
Object was in daylight at epoch
Visualization orbit readout
Latitude
Unknown
Longitude
Unknown
Altitude
Unknown
Speed
Unknown
Apparent Right ascension
Unknown
Apparent Declination
Unknown
Sunlit
N/A
Visualization observer readout
Local Sidereal Time
06:44:40
Azimuth
Unknown
Elevation
Unknown
Doppler factor
Unknown
Orbital elements
Apogee altitude
1,043.994 km
Perigee altitude
1,042.204 km
Semi-major axis
7,421.236 km
Eccentricity
0.00012
Inclination
99.6923°
RAAN
135.5428°
Arg. of periapsis
90.4777°
True anomaly
269.63618°
Mean anomaly
269.65°
Eccentric anomaly
269.64309°
Mean motion
3.39491 °/min
Orbital period
106.04 mins
BSTAR
0.00003577
Loading maneuver chart data...
Computing Atmospheric mass density...
Loading historical data...
Loading historical data...
Loading historical data...
Loading historical data...
Loading historical data...
Loading historical data...
Loading historical data...

Documentation

Showing up to 5 results
|